Location: Sungai Laei
(2.6000°N, 113.7167°E)
Time: 10:43:50
(UTC+00:00)

Hubble Space Telescope - Pass Details

Date: 22 May 2022
Orbit: 532 x 536 km, 28.5° (Epoch: 06 July)

Event Time Altitude Azimuth Distance (km) Brightness Sun altitude
Exits shadow 21:41:53 - 209° (SSW) 2,266 3.5 -8.4°
Reaches altitude 10° 21:43:29 10° 196° (SSW) 1,777 3.1 -8.1°
Maximum altitude 21:46:25 19° 151° (SSE) 1,315 2.9 -7.4°
Drops below altitude 10° 21:49:20 10° 105° (ESE) 1,774 4.3 -6.7°
Sets 21:52:07 0° 86° (E) 2,662 6.1 -6.0°
